Time,TemperatureF,DewpointF,PressureIn,WindDirection,WindDirectionDegrees,WindSpeedMPH,WindSpeedGustMPH,Humidity,HourlyPrecipIn,Conditions,Clouds,dailyrainin,SolarRadiationWatts/m^2,SoftwareType,DateUTC
2013-06-14 00:02:00,41.0,40.0,-100.00,South,188,5.0,6.0,94,-99.99,,,0.01,0.120000,,2013-06-14 06:02:00,
2013-06-14 00:12:00,41.0,40.0,-100.00,South,188,5.0,6.0,94,-99.99,,,0.01,0.120000,,2013-06-14 06:12:00,
2013-06-14 00:43:00,38.0,37.0,-100.00,WSW,240,2.0,4.0,98,-99.99,,,0.01,0.120000,,2013-06-14 06:43:00,
2013-06-14 00:52:00,38.0,37.0,-100.00,WSW,240,2.0,4.0,98,-99.99,,,0.01,0.120000,,2013-06-14 06:52:00,
2013-06-14 01:02:00,38.0,37.0,-100.00,WSW,240,2.0,4.0,98,-99.99,,,0.01,0.120000,,2013-06-14 07:02:00,
2013-06-14 01:12:00,38.0,37.0,-100.00,WSW,240,2.0,4.0,98,-99.99,,,0.01,0.120000,,2013-06-14 07:12:00,
2013-06-14 01:43:00,38.0,38.0,-100.00,East,95,2.0,3.0,98,-99.99,,,0.01,0.120000,,2013-06-14 07:43:00,
2013-06-14 01:53:00,38.0,38.0,-100.00,East,95,2.0,3.0,98,-99.99,,,0.01,0.120000,,2013-06-14 07:53:00,
2013-06-14 02:02:00,38.0,38.0,-100.00,East,95,2.0,3.0,98,-99.99,,,0.01,0.120000,,2013-06-14 08:02:00,
2013-06-14 02:12:00,38.0,38.0,-100.00,East,95,2.0,3.0,98,-99.99,,,0.01,0.120000,,2013-06-14 08:12:00,
2013-06-14 02:43:00,38.0,38.0,-100.00,West,276,3.0,4.0,99,-99.99,,,0.01,0.120000,,2013-06-14 08:43:00,
2013-06-14 02:53:00,38.0,38.0,-100.00,West,276,3.0,4.0,99,-99.99,,,0.01,0.120000,,2013-06-14 08:53:00,
2013-06-14 03:01:00,38.0,38.0,-100.00,West,276,3.0,4.0,99,-99.99,,,0.01,0.120000,,2013-06-14 09:01:00,
2013-06-14 03:11:00,38.0,38.0,-100.00,West,276,3.0,4.0,99,-99.99,,,0.01,0.120000,,2013-06-14 09:11:00,
2013-06-14 03:43:00,37.0,37.0,-100.00,North,354,0.0,3.0,100,-99.99,,,0.01,0.120000,,2013-06-14 09:43:00,
2013-06-14 03:53:00,37.0,37.0,-100.00,North,354,0.0,3.0,100,-99.99,,,0.01,0.120000,,2013-06-14 09:53:00,
2013-06-14 04:01:00,37.0,37.0,-100.00,North,354,0.0,3.0,100,-99.99,,,0.01,0.120000,,2013-06-14 10:01:00,
2013-06-14 04:11:00,37.0,37.0,-100.00,North,354,0.0,3.0,100,-99.99,,,0.01,0.120000,,2013-06-14 10:11:00,
2013-06-14 04:43:00,38.0,37.0,-100.00,ESE,117,3.0,5.0,99,-99.99,,,0.01,0.120000,,2013-06-14 10:43:00,
2013-06-14 04:52:00,38.0,37.0,-100.00,ESE,117,3.0,5.0,99,-99.99,,,0.01,0.120000,,2013-06-14 10:52:00,
2013-06-14 05:02:00,38.0,37.0,-100.00,ESE,117,3.0,5.0,99,-99.99,,,0.01,0.120000,,2013-06-14 11:02:00,
2013-06-14 05:11:00,38.0,37.0,-100.00,ESE,117,3.0,5.0,99,-99.99,,,0.01,0.120000,,2013-06-14 11:11:00,
2013-06-14 05:43:00,39.0,39.0,-100.00,WNW,289,2.0,5.0,100,-99.99,,,0.01,0.230000,,2013-06-14 11:43:00,
2013-06-14 05:52:00,39.0,39.0,-100.00,WNW,289,2.0,5.0,100,-99.99,,,0.01,0.230000,,2013-06-14 11:52:00,
2013-06-14 06:01:00,39.0,39.0,-100.00,WNW,289,2.0,5.0,100,-99.99,,,0.01,0.230000,,2013-06-14 12:01:00,
2013-06-14 06:11:00,39.0,39.0,-100.00,WNW,289,2.0,5.0,100,-99.99,,,0.01,0.230000,,2013-06-14 12:11:00,
2013-06-14 06:43:00,40.0,40.0,-100.00,WNW,300,3.0,4.0,97,-99.99,,,0.01,13.250000,,2013-06-14 12:43:00,
2013-06-14 06:52:00,40.0,40.0,-100.00,WNW,300,3.0,4.0,97,-99.99,,,0.01,13.250000,,2013-06-14 12:52:00,
2013-06-14 07:02:00,40.0,40.0,-100.00,WNW,300,3.0,4.0,97,-99.99,,,0.01,13.250000,,2013-06-14 13:02:00,
2013-06-14 07:11:00,40.0,40.0,-100.00,WNW,300,3.0,4.0,97,-99.99,,,0.01,13.250000,,2013-06-14 13:11:00,
2013-06-14 07:43:00,41.0,40.0,-100.00,WNW,286,2.0,4.0,95,-99.99,,,0.01,68.339996,,2013-06-14 13:43:00,
2013-06-14 07:53:00,43.0,41.0,-100.00,North,10,2.0,5.0,90,-99.99,,,0.00,156.779999,,2013-06-14 13:53:00,
2013-06-14 08:02:00,43.0,41.0,-100.00,North,10,2.0,5.0,90,-99.99,,,0.00,156.779999,,2013-06-14 14:02:00,
2013-06-14 08:11:00,43.0,41.0,-100.00,North,10,2.0,5.0,90,-99.99,,,0.00,156.779999,,2013-06-14 14:11:00,
2013-06-14 08:43:00,44.0,41.0,-100.00,SW,224,4.0,7.0,86,-99.99,,,0.00,309.029999,,2013-06-14 14:43:00,
2013-06-14 08:52:00,44.0,41.0,-100.00,SW,224,4.0,7.0,86,-99.99,,,0.00,309.029999,,2013-06-14 14:52:00,
2013-06-14 09:01:00,44.0,41.0,-100.00,SW,224,4.0,7.0,86,-99.99,,,0.00,309.029999,,2013-06-14 15:01:00,
2013-06-14 09:11:00,44.0,41.0,-100.00,SW,224,4.0,7.0,86,-99.99,,,0.00,309.029999,,2013-06-14 15:11:00,
2013-06-14 09:43:00,47.0,39.0,-100.00,SSE,155,4.0,8.0,73,-99.99,,,0.00,242.199997,,2013-06-14 15:43:00,
2013-06-14 09:53:00,47.0,39.0,-100.00,SSE,155,4.0,8.0,73,-99.99,,,0.00,242.199997,,2013-06-14 15:53:00,
2013-06-14 10:01:00,47.0,39.0,-100.00,SSE,155,4.0,8.0,73,-99.99,,,0.00,242.199997,,2013-06-14 16:01:00,
2013-06-14 10:11:00,47.0,39.0,-100.00,SSE,155,4.0,8.0,73,-99.99,,,0.00,242.199997,,2013-06-14 16:11:00,
2013-06-14 10:43:00,50.0,38.0,-100.00,South,182,5.0,9.0,61,-99.99,,,0.00,410.260010,,2013-06-14 16:43:00,
2013-06-14 10:53:00,50.0,38.0,-100.00,South,182,5.0,9.0,61,-99.99,,,0.00,410.260010,,2013-06-14 16:53:00,
2013-06-14 11:02:00,50.0,38.0,-100.00,South,182,5.0,9.0,61,-99.99,,,0.00,410.260010,,2013-06-14 17:02:00,
2013-06-14 11:11:00,50.0,38.0,-100.00,South,182,5.0,9.0,61,-99.99,,,0.00,410.260010,,2013-06-14 17:11:00,
2013-06-14 11:43:00,52.0,32.0,-100.00,WSW,244,3.0,7.0,45,-99.99,,,0.00,308.329987,,2013-06-14 17:43:00,
2013-06-14 11:53:00,52.0,32.0,-100.00,WSW,244,3.0,7.0,45,-99.99,,,0.00,308.329987,,2013-06-14 17:53:00,
2013-06-14 12:02:00,52.0,32.0,-100.00,WSW,244,3.0,7.0,45,-99.99,,,0.00,308.329987,,2013-06-14 18:02:00,
2013-06-14 12:11:00,52.0,32.0,-100.00,WSW,244,3.0,7.0,45,-99.99,,,0.00,308.329987,,2013-06-14 18:11:00,
2013-06-14 12:42:00,55.0,33.0,-100.00,SE,133,6.0,15.0,43,-99.99,,,0.00,633.979980,,2013-06-14 18:42:00,
2013-06-14 12:52:00,55.0,33.0,-100.00,SE,133,6.0,15.0,43,-99.99,,,0.00,633.979980,,2013-06-14 18:52:00,
2013-06-14 13:01:00,55.0,33.0,-100.00,SE,133,6.0,15.0,43,-99.99,,,0.00,633.979980,,2013-06-14 19:01:00,
2013-06-14 13:11:00,55.0,33.0,-100.00,SE,133,6.0,15.0,43,-99.99,,,0.00,633.979980,,2013-06-14 19:11:00,
2013-06-14 13:43:00,54.0,34.0,-100.00,SW,217,6.0,14.0,45,-99.99,,,0.00,653.849976,,2013-06-14 19:43:00,
2013-06-14 13:53:00,54.0,34.0,-100.00,SW,217,6.0,14.0,45,-99.99,,,0.00,653.849976,,2013-06-14 19:53:00,
2013-06-14 14:01:00,54.0,34.0,-100.00,SW,217,6.0,14.0,45,-99.99,,,0.00,653.849976,,2013-06-14 20:01:00,
2013-06-14 14:11:00,54.0,34.0,-100.00,SW,217,6.0,14.0,45,-99.99,,,0.00,653.849976,,2013-06-14 20:11:00,
2013-06-14 15:42:00,56.0,30.0,-100.00,WSW,239,10.0,17.0,36,-99.99,,,0.00,451.750000,,2013-06-14 21:42:00,
2013-06-14 15:52:00,56.0,30.0,-100.00,WSW,239,10.0,17.0,36,-99.99,,,0.00,451.750000,,2013-06-14 21:52:00,
2013-06-14 16:01:00,56.0,30.0,-100.00,WSW,239,10.0,17.0,36,-99.99,,,0.00,451.750000,,2013-06-14 22:01:00,
2013-06-14 16:11:00,56.0,30.0,-100.00,WSW,239,10.0,17.0,36,-99.99,,,0.00,451.750000,,2013-06-14 22:11:00,
2013-06-14 16:43:00,59.0,31.0,-100.00,WSW,244,10.0,20.0,35,-99.99,,,0.00,830.969971,,2013-06-14 22:43:00,
2013-06-14 16:53:00,59.0,31.0,-100.00,WSW,244,10.0,20.0,35,-99.99,,,0.00,830.969971,,2013-06-14 22:53:00,
2013-06-14 17:01:00,59.0,31.0,-100.00,WSW,244,10.0,20.0,35,-99.99,,,0.00,830.969971,,2013-06-14 23:01:00,
2013-06-14 17:11:00,59.0,31.0,-100.00,WSW,244,10.0,20.0,35,-99.99,,,0.00,830.969971,,2013-06-14 23:11:00,
2013-06-14 17:43:00,58.0,30.0,-100.00,WSW,242,11.0,20.0,34,-99.99,,,0.00,341.450012,,2013-06-14 23:43:00,
2013-06-14 17:52:00,58.0,30.0,-100.00,WSW,242,11.0,20.0,34,-99.99,,,0.00,341.450012,,2013-06-14 23:52:00,
2013-06-14 18:01:00,58.0,30.0,-100.00,WSW,242,11.0,20.0,34,-99.99,,,0.00,341.450012,,2013-06-15 00:01:00,
2013-06-14 18:11:00,58.0,30.0,-100.00,WSW,242,11.0,20.0,34,-99.99,,,0.00,341.450012,,2013-06-15 00:11:00,
2013-06-14 19:43:00,57.0,28.0,-100.00,WNW,291,8.0,13.0,32,-99.99,,,0.00,135.050003,,2013-06-15 01:43:00,
2013-06-14 19:54:00,57.0,28.0,-100.00,WNW,291,8.0,13.0,32,-99.99,,,0.00,135.050003,,2013-06-15 01:54:00,
2013-06-14 20:02:00,57.0,28.0,-100.00,WNW,291,8.0,13.0,32,-99.99,,,0.00,135.050003,,2013-06-15 02:02:00,
2013-06-14 20:11:00,57.0,28.0,-100.00,WNW,291,8.0,13.0,32,-99.99,,,0.00,135.050003,,2013-06-15 02:11:00,
2013-06-14 20:43:00,56.0,29.0,-100.00,West,261,10.0,16.0,35,-99.99,,,0.00,105.879997,,2013-06-15 02:43:00,
2013-06-14 20:53:00,56.0,29.0,-100.00,West,261,10.0,16.0,35,-99.99,,,0.00,105.879997,,2013-06-15 02:53:00,
2013-06-14 21:01:00,56.0,29.0,-100.00,West,261,10.0,16.0,35,-99.99,,,0.00,105.879997,,2013-06-15 03:01:00,
2013-06-14 21:11:00,56.0,29.0,-100.00,West,261,10.0,16.0,35,-99.99,,,0.00,105.879997,,2013-06-15 03:11:00,
2013-06-14 21:43:00,51.0,34.0,-100.00,WSW,245,6.0,9.0,53,-99.99,,,0.00,16.040001,,2013-06-15 03:43:00,
2013-06-14 21:53:00,51.0,34.0,-100.00,WSW,245,6.0,9.0,53,-99.99,,,0.00,16.040001,,2013-06-15 03:53:00,
2013-06-14 22:01:00,51.0,34.0,-100.00,WSW,245,6.0,9.0,53,-99.99,,,0.00,16.040001,,2013-06-15 04:01:00,
2013-06-14 22:11:00,51.0,34.0,-100.00,WSW,245,6.0,9.0,53,-99.99,,,0.00,16.040001,,2013-06-15 04:11:00,
2013-06-14 22:43:00,47.0,35.0,-100.00,WSW,244,5.0,8.0,62,-99.99,,,0.00,0.120000,,2013-06-15 04:43:00,
2013-06-14 22:54:00,47.0,35.0,-100.00,WSW,244,5.0,8.0,62,-99.99,,,0.00,0.120000,,2013-06-15 04:54:00,
2013-06-14 23:02:00,47.0,35.0,-100.00,WSW,244,5.0,8.0,62,-99.99,,,0.00,0.120000,,2013-06-15 05:02:00,
2013-06-14 23:12:00,47.0,35.0,-100.00,WSW,244,5.0,8.0,62,-99.99,,,0.00,0.120000,,2013-06-15 05:12:00,
2013-06-14 23:42:00,45.0,36.0,-100.00,SE,146,2.0,5.0,70,-99.99,,,0.00,0.120000,,2013-06-15 05:42:00,
2013-06-14 23:52:00,45.0,36.0,-100.00,SE,146,2.0,5.0,70,-99.99,,,0.00,0.120000,,2013-06-15 05:52:00,